Sandspit, British Columbia

12:31 PM PDT on August 17, 2017 (GMT -0700)
Sandspit

Weather History for CYZP - January, 2013

Change the Weather History Date:

Tuesday, January 1, 2013

  Actual Average Record
Temperature  
Mean Temperature 38 °F -  
Max Temperature 46 °F 42 °F 50 °F (2007)
Min Temperature 29 °F 33 °F 28 °F (2005)
Degree Days  
Heating Degree Days 28    
Moisture  
Dew Point 40 °F    
Average Humidity 85    
Maximum Humidity 93    
Minimum Humidity 76    
Precipitation  
Precipitation 0.00 in 0.21 in - ()
Sea Level Pressure  
Sea Level Pressure 30.12 in    
Wind  
Wind Speed 22 mph ()    
Max Wind Speed 44 mph    
Max Gust Speed 53 mph    
Visibility 7.9 miles    
Events Rain    
Averages and records for this station are not official NWS values.
T = Trace of Precipitation, MM = Missing Value Source: Averaged Metar Reports

Daily Weather History Graph

Daily Weather History Graph

Search for Another Location

Airport or City:

Trip Planner

Search our weather history database for the weather conditions in past years. The results will help you decide how hot, cold, wet, or windy it might be!

Date:

Astronomy

Jan. 01, 2013 Rise Set
Actual Time 9:01 AM PST 4:40 PM PST
Civil Twilight 8:19 AM PST 5:22 PM PST
Nautical Twilight 7:34 AM PST 6:07 PM PST
Astronomical Twilight 6:52 AM PST 6:50 PM PST
Moon 10:02 PM PST (1/1) 10:38 AM PST (1/1)
Length of Visible Light 9h 03m
Length of Day
7h 38m
Waning Gibbous, 82% of the Moon is Illuminated
Jan 1
Waning Gibbous
Jan 4
Last Quarter
Jan 11
New
Jan 18
First Quarter
Jan 26
Full

Hourly Weather History & Observations

Time (PST) Temp. Windchill Dew Point Humidity Pressure Visibility Wind Dir Wind Speed Gust Speed Precip Events Conditions
12:00 AM 37.4 °F 29.8 °F 35.6 °F 93% 30.33 in 9.0 mi SSE 11.5 mph - N/A   Mostly Cloudy
12:46 AM 39.2 °F 37.0 °F 35.6 °F 87% 30.33 in 9.0 mi SSE 3.5 mph - N/A   Overcast
12:54 AM 39.2 °F 37.0 °F 35.6 °F 87% 30.32 in 9.0 mi South 3.5 mph - N/A   Overcast
1:00 AM 39.2 °F 37.0 °F 35.6 °F 87% 30.32 in 9.0 mi South 3.5 mph - N/A   Overcast
1:33 AM 41.0 °F 33.1 °F 37.4 °F 87% 30.32 in 9.0 mi SSE 15.0 mph - N/A   Overcast
2:00 AM 41.0 °F 32.8 °F 39.2 °F 93% 30.31 in 8.0 mi SSE 16.1 mph - N/A   Overcast
3:00 AM 42.8 °F 34.3 °F 39.2 °F 87% 30.30 in 8.0 mi SSE 19.6 mph - N/A   Overcast
4:00 AM 43 °F - - % 30.30 in - SSE 17.3 mph - -  
4:00 AM 42.8 °F 33.8 °F 39.2 °F 87% 30.30 in 8.0 mi SSE 21.9 mph - N/A   Overcast
4:33 AM 42.8 °F 34.3 °F 39.2 °F 87% 30.29 in 9.0 mi SE 19.6 mph - N/A   Overcast
4:40 AM 42.8 °F 34.8 °F 39.2 °F 87% 30.29 in 9.0 mi SSE 17.3 mph 23.0 mph N/A   Overcast
5:00 AM 44.6 °F 35.9 °F 39.2 °F 81% 30.27 in 9.0 mi SE 23.0 mph 28.8 mph N/A   Overcast
5:35 AM 44.6 °F 35.3 °F 41.0 °F 87% 30.27 in 9.0 mi SE 26.5 mph 35.7 mph N/A   Overcast
5:42 AM 44.6 °F 35.1 °F 39.2 °F 81% 30.27 in - SE 27.6 mph 34.5 mph N/A   Overcast
5:43 AM 44.6 °F 35.5 °F 39.2 °F 81% 30.27 in - SE 25.3 mph 34.5 mph N/A   Overcast
5:45 AM 44.6 °F 35.1 °F 39.2 °F 81% 30.27 in - SE 27.6 mph 34.5 mph N/A   Overcast
5:51 AM 44.6 °F 35.3 °F 39.2 °F 81% 30.27 in 9.0 mi SE 26.5 mph 35.7 mph N/A   Overcast
6:00 AM 44.6 °F 35.9 °F 39.2 °F 81% 30.26 in 9.0 mi SE 23.0 mph 32.2 mph N/A   Overcast
6:28 AM 44.6 °F 35.1 °F 39.2 °F 81% 30.25 in 9.0 mi SE 27.6 mph 34.5 mph N/A   Overcast
6:56 AM 44.6 °F 35.9 °F 39.2 °F 81% 30.24 in 9.0 mi SE 23.0 mph 29.9 mph N/A   Overcast
7:00 AM 44.6 °F 34.9 °F 39.2 °F 81% 30.23 in 9.0 mi SE 28.8 mph 35.7 mph N/A   Overcast
8:00 AM 42.8 °F 32.1 °F 39.2 °F 87% 30.20 in 9.0 mi SE 31.1 mph 40.3 mph N/A   Overcast
9:00 AM 42.8 °F 31.6 °F 39.2 °F 87% 30.18 in 9.0 mi SE 34.5 mph 42.6 mph N/A   Overcast
9:07 AM 42.8 °F 31.4 °F 39.2 °F 87% 30.17 in 9.0 mi SE 35.7 mph 41.4 mph N/A   Overcast
9:19 AM 42.8 °F 31.6 °F 39.2 °F 87% 30.17 in 9.0 mi SE 34.5 mph - N/A   Overcast
10:00 AM 44 °F - - % 30.14 in - SE 35.7 mph - -  
10:00 AM 44.6 °F 33.8 °F 39.2 °F 81% 30.14 in 9.0 mi SE 36.8 mph 42.6 mph N/A   Overcast
10:51 AM 44.6 °F 33.8 °F 39.2 °F 81% 30.12 in 9.0 mi SE 36.8 mph 43.7 mph N/A   Overcast
11:00 AM 44.6 °F 33.6 °F 41.0 °F 87% 30.13 in 9.0 mi SE 38.0 mph 48.3 mph N/A   Overcast
11:34 AM 44.6 °F 33.5 °F 41.0 °F 87% 30.12 in 9.0 mi SE 39.1 mph 48.3 mph N/A   Mostly Cloudy
12:00 PM 44.6 °F 33.1 °F 39.2 °F 81% 30.11 in 9.0 mi SE 42.6 mph 50.6 mph N/A   Overcast
12:56 PM 44.6 °F 33.5 °F 41.0 °F 87% 30.09 in 9.0 mi SE 39.1 mph 50.6 mph N/A   Mostly Cloudy
1:00 PM 44.6 °F 33.6 °F 41.0 °F 87% 30.09 in 9.0 mi SE 38.0 mph 50.6 mph N/A   Mostly Cloudy
2:00 PM 46.4 °F 35.7 °F 39.2 °F 76% 30.04 in 8.0 mi SE 41.4 mph 52.9 mph N/A   Mostly Cloudy
3:00 PM 46.4 °F 36.5 °F 41.0 °F 81% 30.03 in 9.0 mi SE 34.5 mph 47.2 mph N/A   Overcast
4:00 PM 46 °F - - % 30.01 in - SE 32.2 mph - -  
4:00 PM 46.4 °F 35.8 °F 39.2 °F 76% 30.01 in 9.0 mi SE 40.3 mph 47.2 mph N/A   Mostly Cloudy
4:04 PM 46.4 °F 36.0 °F 39.2 °F 76% 30.01 in 9.0 mi SSE 39.1 mph 47.2 mph N/A   Mostly Cloudy
4:10 PM 46.4 °F 36.3 °F 39.2 °F 76% 30.02 in 9.0 mi SSE 36.8 mph 46.0 mph N/A   Overcast
5:00 PM 44.6 °F 33.6 °F 41.0 °F 87% 30.00 in 7.0 mi SE 38.0 mph 44.9 mph N/A   Overcast
6:00 PM 44.6 °F 33.1 °F 41.0 °F 87% 29.97 in 7.0 mi SE 42.6 mph 51.8 mph N/A   Overcast
6:52 PM 44.6 °F 32.9 °F 41.0 °F 87% 29.96 in 7.0 mi SE 43.7 mph 50.6 mph N/A Rain Light Rain
7:00 PM 44.6 °F 33.5 °F 41.0 °F 87% 29.96 in 6.0 mi SE 39.1 mph 50.6 mph N/A Rain Light Rain
7:17 PM 44.6 °F 33.9 °F 41.0 °F 87% 29.97 in 5.0 mi SE 35.7 mph 47.2 mph N/A Rain Light Rain
8:00 PM 44.6 °F 34.1 °F 41.0 °F 87% 29.96 in 3.0 mi SE 34.5 mph 41.4 mph N/A Rain Light Rain
8:26 PM 44.6 °F 34.1 °F 41.0 °F 87% 29.95 in 6.0 mi SE 34.5 mph 42.6 mph N/A Rain Light Rain
8:29 PM 44.6 °F 33.8 °F 41.0 °F 87% 29.95 in 7.0 mi SE 36.8 mph 46.0 mph N/A   Mostly Cloudy
8:42 PM 44.6 °F 34.7 °F 41.0 °F 87% 29.96 in 7.0 mi SE 29.9 mph 40.3 mph N/A Rain Light Rain
9:00 PM 44.6 °F 33.9 °F 41.0 °F 87% 29.96 in 7.0 mi SSE 35.7 mph - N/A Rain Light Rain
9:19 PM 44.6 °F 34.7 °F 41.0 °F 87% 29.97 in 5.0 mi SSE 29.9 mph 40.3 mph N/A Rain Light Rain
9:42 PM 44.6 °F 36.9 °F 41.0 °F 87% 29.98 in 6.0 mi SSE 18.4 mph 27.6 mph N/A Rain Light Rain
9:54 PM 44.6 °F 38.1 °F 41.0 °F 87% 29.98 in 5.0 mi SSE 13.8 mph 21.9 mph N/A Rain Light Rain
10:00 PM 44 °F - - % 29.98 in - South 10.4 mph - -  
10:00 PM 44.6 °F 36.9 °F 41.0 °F 87% 29.98 in 5.0 mi SSE 18.4 mph - N/A Rain Light Rain
10:07 PM 44.6 °F 36.4 °F 41.0 °F 87% 29.97 in 6.0 mi SSE 20.7 mph 27.6 mph N/A Rain Light Rain
10:31 PM 44.6 °F 36.1 °F 42.8 °F 93% 29.96 in 5.0 mi SSE 21.9 mph - N/A Rain Light Rain
10:47 PM 44.6 °F 36.9 °F 42.8 °F 93% 29.96 in 6.0 mi SE 18.4 mph 25.3 mph N/A Rain Light Rain
11:00 PM 44.6 °F 37.2 °F 41.0 °F 87% 29.95 in 9.0 mi SSE 17.3 mph 24.2 mph N/A Rain Light Rain
11:11 PM 44.6 °F 36.1 °F 41.0 °F 87% 29.95 in 8.0 mi SE 21.9 mph - N/A   Overcast
11:22 PM 44.6 °F 36.4 °F 41.0 °F 87% 29.94 in 9.0 mi SSE 20.7 mph - N/A Rain Light Rain